This demonstration page uses our WeatherBlox Daily Observations layout. Learn more.

Left ArrowRight Arrow

38.88101, -77.10428

Hourly Observations for January 8, 2022

Temp ( °F °C ) Dew Point ( °F °C ) Humidity (%) Winds ( mph kmh ) Pressure ( in mb ) Visibility ( mi km ) Precip ( " mm )
12:52 am 00:52 Mostly Clear 24 -4.4 8 -13.3 50 50 W 8 13 30.45 1031 10 16 0.00 0.00
1:52 am 01:52 Mostly Clear 23 -5 9 -12.8 55 55 WSW 8 13 30.48 1032 10 16 0.00 0.00
2:52 am 02:52 Partly Cloudy 23 -5 9 -12.8 55 55 W 7 11 30.51 1033 10 16 0.00 0.00
3:52 am 03:52 Mostly Clear 23 -5 8 -13.3 53 53 WNW 7 11 30.51 1033 10 16 0.00 0.00
4:52 am 04:52 Mostly Clear 23 -5 9 -12.8 55 55 NNW 9 15 30.52 1034 10 16 0.00 0.00
5:52 am 05:52 Partly Cloudy 24 -4.4 8 -13.3 50 50 NNW 8 13 30.55 1034 10 16 0.00 0.00
6:52 am 06:52 Mostly Clear 24 -4.4 8 -13.3 50 50 NW 8 13 30.59 1036 10 16 0.00 0.00
7:52 am 07:52 Mostly Sunny 23 -5 8 -13.3 53 53 NNW 9 15 30.63 1037 10 16 0.00 0.00
8:52 am 08:52 Mostly Sunny 24 -4.4 9 -12.8 52 52 NW 9 15 30.66 1038 10 16 0.00 0.00
9:52 am 09:52 Mostly Sunny 27 -2.8 10 -12.2 49 49 NW 8 13 30.70 1040 10 16 0.00 0.00
10:52 am 10:52 Mostly Sunny 29 -1.7 10 -12.2 45 45 N 5 7 30.70 1040 10 16 0.00 0.00
11:52 am 11:52 Partly Cloudy 30 -1.1 10 -12.2 43 43 Calm 30.67 1039 10 16 0.00 0.00
12:52 pm 12:52 Partly Cloudy 30 -1.1 10 -12.2 43 43 Calm 30.64 1038 10 16 0.00 0.00
1:52 pm 13:52 Mostly Sunny 31 -0.6 10 -12.2 42 42 SSW 5 7 30.61 1037 10 16 0.00 0.00
2:52 pm 14:52 Sunny 32 0 11 -11.7 41 41 S 5 7 30.60 1036 10 16 0.00 0.00
3:52 pm 15:52 Sunny 33 0.6 10 -12.2 38 38 S 6 9 30.61 1037 10 16 0.00 0.00
4:52 pm 16:52 Sunny 33 0.6 11 -11.7 40 40 S 9 15 30.62 1037 10 16 0.00 0.00
5:52 pm 17:52 Clear 31 -0.6 13 -10.6 47 47 SSW 8 13 30.63 1037 10 16 0.00 0.00
6:52 pm 18:52 Clear 31 -0.6 14 -10 49 49 S 10 17 30.62 1037 10 16 0.00 0.00
7:52 pm 19:52 Clear 31 -0.6 14 -10 49 49 SE 8 13 30.59 1036 10 16 0.00 0.00
8:52 pm 20:52 Clear 31 -0.6 16 -8.9 54 54 SSE 10 17 30.58 1036 10 16 0.00 0.00
9:52 pm 21:52 Clear 31 -0.6 18 -7.8 59 59 S 14 22 30.55 1035 10 16 0.00 0.00
10:52 pm 22:52 Partly Cloudy 30 -1.1 19 -7.2 64 64 S 9 15 30.56 1035 10 16 0.00 0.00
11:52 pm 23:52 Partly Cloudy 31 -0.6 19 -7.2 61 61 S 10 17 30.52 1034 10 16 0.00 0.00

Powered by AerisWeather